Volver al catálogo

QIANFAN-154

ActivoComunicacionesPO
NORAD 69113·PAYLOAD·🇨🇳 China

Lanzado May 17, 2026 desde Wenchang Space Launch Site

Loading…

Próximos Pases (próximas 24 horas)

TLE

ActualizadoSource: Space-Track

Época: Sep 14, 2026, 22:11 UTC

1 69113U 26108K   26257.92438078  .00000095  00000-0  12899-3 0  9996
2 69113  89.0192  13.0964 0002117 106.5327 253.6057 13.51025959 16554

Sigue QIANFAN-154 en tiempo real con AllMySat

Download on the App Store